Regional Weather Roundup
Issued by NWS

Home | Current Version | Previous Version | Graphics & Text | Print | Product List | Glossary On
Versions: 1 2 3 4 5 6 7 8 9 10 11 12 13 14 15 16 17 18 19 20 21 22 23 24 25 26 27 28
000
ASUS45 KTFX 171710
RWRMT
MONTANA REGIONAL WEATHER ROUNDUP
NATIONAL WEATHER SERVICE GREAT FALLS MT
1000 AM MST WED JAN 17 2018

NOTE: "FAIR" INDICATES FEW OR NO CLOUDS BELOW 12000 FEET WITH NO
SIGNIFICANT WEATHER AND/OR OBSTRUCTIONS TO VISIBILITY.

MTZ001>007-043-171800-
WEST OF THE DIVIDE

CITY           SKY/WX    TMP DP  RH WIND       PRES   REMARKS
KALISPELL      FOG       28  27  96 CALM      30.24F VSB 1/4
MISSOULA       FOG       19  18  95 CALM      30.30S VSB<1/4
BUTTE          FAIR      11   7  84 SE5       30.31R
MULLAN PASS    FAIR      25  25 100 S10       30.12F WCI  15
ANACONDA         N/A     30  18  59 S9        30.28S WCI  22
DEER LODGE       N/A     19  18  93 CALM      30.30S
EUREKA           N/A     21  19  93 MISG      30.23R VSB 1/2
HAMILTON         N/A     30  27  86 CALM      30.26F
PLAINS           N/A     26  21  81 MISG      30.24S VSB 0
RONAN          FOG       19  18  93 CALM      30.25F VSB 0
$$

MTZ008-052>055-171800-
SOUTHWEST MONTANA

CITY           SKY/WX    TMP DP  RH WIND       PRES   REMARKS
BOZEMAN        FAIR      16  11  80 S3        30.33F
DILLON         FAIR      23  17  78 SW14      30.33R WCI  11
ENNIS          CLOUDY    30  19  64 S14       30.37S WCI  20
W YELLOWSTONE  CLOUDY     5   3  92 CALM      30.42S
THREE FORKS      N/A     17  13  84 CALM      30.28S
TWIN BRIDGES     N/A     24  16  71 CALM      30.29
$$

MTZ009-010-012-014-046-048-049-054-171800-
EAST SLOPES AND CENTRAL MONTANA

CITY           SKY/WX    TMP DP  RH WIND       PRES   REMARKS
CUT BANK       FAIR      35  20  54 SE6       30.12S WCI  30
GREAT FALLS    FAIR      37  23  56 S18       30.19R WCI  27
MALMSTROM AFB  FAIR      38  26  60 SW13      30.20R WCI  31
HELENA         FAIR      15  12  88 CALM      30.32R FOG
AUGUSTA        PTSUNNY   31  22  68 S9        30.18S WCI  23
BOWMANS CRNR   PTSUNNY   31  22  68 S23       30.18R WCI  17
CHOTEAU          N/A     34  23  64 S7        30.18S WCI  28
CONRAD           N/A     28  21  75 S10       30.14  WCI  19
FAIRFIELD      FAIR      35  22  60 S12       30.17S WCI  26
POWER          FAIR      34  23  62 SW17      30.17S WCI  24
ULM            PTSUNNY   37  25  62 S10       30.21R WCI  30
WHITE SULPHUR    N/A     32  21  64 S16       30.26S WCI  21
$$

MTZ011-013-016-021-045-047-050-051-171800-
NORTH CENTRAL MONTANA

CITY           SKY/WX    TMP DP  RH WIND       PRES   REMARKS
HAVRE          FAIR      24  18  77 W12       30.15F WCI  13
LEWISTOWN      FAIR      25  13  60 CALM      30.20S
N BAR RANCH    FAIR      36   7  30 VRB5      30.21S
CHINOOK          N/A     30  21  69 W14       30.13F WCI  20
DENTON         FAIR      22  14  70 MISG      30.16R
GEYSER         FAIR      34  20  55 W14       30.19R WCI  25
GRASS RANGE    FAIR      38  17  41 W20       30.15S WCI  28
STANFORD       FAIR      40  18  39 W15       30.19R
WINIFRED       FAIR      36  17  45 W8        30.18R WCI  30
$$

MTZ017>020-022>027-061-062-171800-
NORTHEAST MONTANA

CITY           SKY/WX    TMP DP  RH WIND       PRES   REMARKS
GLASGOW        FAIR      10   4  76 NE3       30.16R
GLENDIVE       FAIR      14   7  73 S12       30.20S WCI   0
JORDAN           N/A     21  14  74 W12       30.19S WCI   9
MALTA          SUNNY     10   5  79 W10       30.17S WCI  -3
SIDNEY         FAIR      21  13  71 S6        30.17R WCI  13
WOLF POINT     FAIR       8  -1  66 W3        30.19R
PLENTYWOOD       N/A     30  18  59 CALM      30.07R
POPLAR           N/A      7   0  72 CALM      30.18R
SCOBEY           N/A     30  16  56 W17       30.05R WCI  18
$$

MTZ028>42-056>058-171800-
SOUTHCENTRAL AND SOUTHEAST MONTANA

CITY           SKY/WX    TMP DP  RH WIND       PRES   REMARKS
BAKER          FAIR      25  16  68 W8        30.23R WCI  16
BILLINGS       PTSUNNY   27  13  55 SW24      30.25F WCI  12
LIVINGSTON     FAIR      33  21  61 E5        30.26F
MILES CITY     FAIR       9   3  77 S7        30.26R WCI  -2
BIG TIMBER     SUNNY     36  19  51 W26G38    30.27S WCI  23
EKALAKA          N/A     30  14  51 W1        30.19R
FORSYTH          N/A     16   3  57 CALM      30.27R
HARLOWTON      FAIR      33  24  68 W16       30.23S WCI  23
LAUREL           N/A     23  12  63 SW13      30.28F WCI  11
$$

REGIONAL REPORTS...DAKOTAS

CITY           SKY/WX    TMP DP  RH WIND       PRES   REMARKS
WILLISTON      FAIR      23  15  71 SW22      30.11S WCI   8
MINOT          FAIR      33  17  51 SW25G31   29.99R WCI  20
DICKINSON      FAIR      32  20  61 W22       30.12R WCI  19
BEACH          FAIR      25  16  68 W16G22    30.21S WCI  12
CROSBY         FAIR      28  16  59 SW17      30.02R WCI  16
TIOGA          FAIR      23  16  74 W21       30.06R WCI   8
WATFORD CITY   FAIR      28  19  69 SW14      30.12R WCI  17
BISMARCK       FAIR      16   7  67 SW3       30.13R
GRAND FORKS    FAIR      18  10  71 S10       29.98S WCI   6
FARGO          FAIR      15   6  67 SW16      30.08S WCI  -1
BUFFALO SD       N/A     28  18  66 NW16      30.16R WCI  16
RAPID CITY     FAIR      40  24  53 NW13      30.26R
$$

REGIONAL REPORTS...WYOMING/IDAHO/WASHINGTON

CITY           SKY/WX    TMP DP  RH WIND       PRES   REMARKS
GILLETTE         N/A     34  19  54 W12       30.29R WCI  25
SHERIDAN       FAIR      29  18  63 SW5       30.29R
BUFFALO WY     FAIR      40  10  29 S7        30.31R
CODY           FAIR      24  15  68 CALM      30.30S
YELLOWSTONE LA   N/A     18  12  77 CALM      30.41R
IDAHO FALLS    FAIR      27  24  89 N3        30.43R
SALMON         CLOUDY    22  20  92 N3        30.46R
BOISE          FAIR      35  31  85 S14       30.33S WCI  26
SPOKANE        FOG       33  33 100 NE7       30.15S VSB 1/8 WCI  27
$$

REGIONAL REPORTS...ALBERTA

CITY           SKY/WX    TMP DP  RH WIND       PRES   REMARKS
CALGARY        MOCLDY    37  14  38 SW9       29.96S WCI  31
CARDSTON         N/A     30  18  59 MISG        N/A
EDMONTON       CLEAR     34  21  60 W7        29.89R WCI  28
FORT MCMURRAY  MOCLDY    30  28  93 W10       29.67S WCI  21
HIGH LEVEL     CLOUDY    19  16  86 CALM      29.64S
LETHBRIDGE     PTSUNNY   32  21  64 SW16G25   30.07S WCI  21
LLOYDMINSTER   PTCLDY    37  30  75 W22G29    29.81R WCI  27
MEDICINE HAT   MOSUNNY   30  19  64 SW13G20   30.06S WCI  20
MILK RIVER       N/A     32  23  69 SW13        N/A  WCI  22
ONEFOUR          N/A     30  18  59 NW2         N/A
PEACE RIVER    PTCLDY    21  19  93 SW12      29.78R WCI   9
PINCHER CREEK  SUNNY     32  19  59 S3        30.09R
WATERTON GATE    N/A     37  21  52 SW21G29     N/A  WCI  27
$$

REGIONAL REPORTS...SASKATCHEWAN

CITY           SKY/WX    TMP DP  RH WIND       PRES   REMARKS
CORONACH         N/A     28  18  64 W14G24      N/A  WCI  17
CYPRESS HILLS    N/A     36  12  38 W10G17      N/A  WCI  28
ESTEVAN        SUNNY     28  18  64 SW14      29.98R WCI  17
MOOSE JAW        N/A     37  25  60 W23G30      N/A  WCI  26
PRINCE ALBERT  MOSUNNY   10   7  85 W6        29.73R WCI   1
REGINA         MOSUNNY   34  25  69 W21G26    29.92R WCI  22
ROCKGLEN         N/A     21  14  73 W18         N/A  WCI   6
SASKATOON      PTSUNNY   39  32  75 W20G26    29.80R WCI  30
SWIFT CURRENT  SUNNY     30  21  69 W18       30.00R WCI  18
VAL MARIE        N/A     27  18  69 W20G25      N/A  WCI  13
$$




USA.gov is the U.S. government's official web portal to all federal, state and local government web resources and services.